TimeAKDT,TemperatureF,Dew PointF,Humidity,Sea Level PressureIn,VisibilityMPH,Wind Direction,Wind SpeedMPH,Gust SpeedMPH,PrecipitationIn,Events,Conditions,WindDirDegrees,DateUTC
12:58 AM,35.4,34.3,96,29.30,10.0,Calm,Calm,-,N/A,,Partly Cloudy,0,2013-09-27 08:58:00
1:58 AM,35.2,33.4,93,29.27,10.0,North,3.5,-,N/A,,Clear,360,2013-09-27 09:58:00
2:58 AM,33.4,31.3,92,29.25,10.0,North,8.1,-,N/A,,Clear,350,2013-09-27 10:58:00
3:58 AM,33.8,30.6,88,29.22,10.0,NE,1.2,-,N/A,,Clear,50,2013-09-27 11:58:00
4:58 AM,37.6,32.2,81,29.20,10.0,ENE,4.6,-,N/A,,Clear,60,2013-09-27 12:58:00
5:58 AM,37.6,32.2,81,29.19,10.0,Variable,5.8,-,N/A,,Overcast,0,2013-09-27 13:58:00
6:58 AM,39.0,32.2,76,29.18,10.0,North,5.8,-,N/A,,Overcast,10,2013-09-27 14:58:00
7:58 AM,38.7,32.5,79,29.17,10.0,Variable,4.6,-,N/A,,Overcast,0,2013-09-27 15:58:00
8:58 AM,40.1,33.8,78,29.17,10.0,Variable,5.8,-,N/A,,Overcast,0,2013-09-27 16:58:00
9:58 AM,41.2,35.4,80,29.17,10.0,Variable,4.6,-,N/A,,Mostly Cloudy,0,2013-09-27 17:58:00
10:58 AM,46.9,35.8,65,29.17,10.0,North,5.8,-,N/A,,Mostly Cloudy,10,2013-09-27 18:58:00
11:58 AM,52.5,33.6,49,29.17,10.0,Variable,1.2,-,N/A,,Clear,0,2013-09-27 19:58:00
12:58 PM,54.3,33.3,45,29.17,10.0,ESE,10.4,-,N/A,,Clear,120,2013-09-27 20:58:00
1:58 PM,56.5,33.6,42,29.17,10.0,East,4.6,-,N/A,,Clear,90,2013-09-27 21:58:00
2:58 PM,58.3,32.9,38,29.17,10.0,SE,9.2,-,N/A,,Clear,130,2013-09-27 22:58:00
3:58 PM,56.3,34.2,43,29.17,10.0,Variable,5.8,-,N/A,,Clear,0,2013-09-27 23:58:00
4:58 PM,55.0,36.5,50,29.17,10.0,Variable,5.8,-,N/A,,Clear,0,2013-09-28 00:58:00
5:58 PM,55.2,35.6,48,29.18,10.0,Variable,5.8,-,N/A,,Partly Cloudy,0,2013-09-28 01:58:00
6:58 PM,49.3,34.9,58,29.19,10.0,WSW,3.5,-,N/A,,Clear,250,2013-09-28 02:58:00
7:58 PM,43.2,34.9,73,29.21,10.0,Variable,3.5,-,N/A,,Scattered Clouds,0,2013-09-28 03:58:00
8:58 PM,39.4,33.8,80,29.22,10.0,Calm,Calm,-,N/A,,Clear,0,2013-09-28 04:58:00
9:58 PM,36.0,33.1,89,29.24,10.0,Calm,Calm,-,N/A,,Scattered Clouds,0,2013-09-28 05:58:00
10:58 PM,36.9,32.7,85,29.25,10.0,North,1.2,-,N/A,,Partly Cloudy,10,2013-09-28 06:58:00
11:58 PM,35.4,31.8,87,29.26,10.0,North,1.2,-,N/A,,Clear,360,2013-09-28 07:58:00